Find Starlink 1656

NORAD ID: 46353 Int'l Des: 2020-062 Owner: SPXS Country: US Constellation: starlink operational
LEOCIRCULAR

当前视图

正在加载3D地球...

About Starlink 1656

Starlink 1656 (NORAD 46353) is a starlink constellation satellite (v1.0) launched Sep 3, 2020 by SPXS of US. It operates in LEO, CIRCULAR orbit with a mass of 260.00 kg.

关于 Starlink 1656

正在加载描述...

即将过境

Passes for default location (London). Set your location on the main map for personalized predictions.

高度历史

Loading altitude history...

两行轨道根数

1 46353U 20062AE 26196.85899118 .00093115 00000-0 52632-3 0 9994
2 46353 53.0397 90.7313 0002344 216.4010 143.6851 15.78385844324617
Epoch: Jul 15, 2026 • Age: 6 hours

当前状态

高度 336.8 km
远地点 / 近地点 N/A
速度 7.71 km/s
星下点 2.09°N, 116.49°E
发射日期 Sep 3, 2020
运行时间 5.8 years
类型 internet

技术详情

分类 Payload
质量 260.00 kg
干质量 248.00 kg
总质量 260.00 kg
长度 0.20 m
直径 2.80 m
跨度 9.00 m
形状 Box + pan
制造商 SPXS
平台类型 Starlink
阶段状态 In Orbit
所有者/国家 SPXS/US

Most Searched